Regional Weather Roundup
Issued by NWS

Home | Current Version | Previous Version | Text Only | Print | Product List | Glossary On
Versions: 1 2 3 4 5 6 7 8 9 10 11 12 13 14 15 16 17 18 19 20 21 22 23 24 25 26 27 28 29 30 31 32 33 34 35 36 37 38 39 40 41 42 43 44 45 46 47 48 49 50
000
ASUS44 KOUN 280610
RWROK

WEATHER ROUNDUP FOR OKLAHOMA
NATIONAL WEATHER SERVICE NORMAN OK
1200 AM CST WED JAN 28 2015

NOTE: "FAIR" INDICATES FEW OR NO CLOUDS BELOW 12,000 FEET WITH NO
      SIGNIFICANT WEATHER AND/OR OBSTRUCTIONS TO VISIBILITY.

OKZ001>007-009>012-014-015-017-280700-
NORTHWEST OKLAHOMA AND THE PANHANDLE

CITY           SKY/WX    TMP DP  RH WIND       PRES   REMARKS
GAGE           CLEAR     53  33  46 S14       30.02F
6HR MIN TEMP:  50; 6HR MAX TEMP:  68;

ENID/WOODRING  CLEAR     48  37  66 S8        30.00S
$$

OKZ016-021>023-033>039-044-045-280700-
SOUTHWEST OKLAHOMA

CITY           SKY/WX    TMP DP  RH WIND       PRES   REMARKS
LAWTON/REGL    CLEAR     50  39  66 CALM      30.08R
6HR MIN TEMP:  50; 6HR MAX TEMP:  66;

LAWTON/FT SILL CLEAR     49  40  72 CALM      30.06S
FREDERICK      CLEAR     50  39  66 SW6       30.05S
CLINTON        CLEAR     51  39  63 SW14      30.08R
HOBART         CLEAR     49  39  68 S14       30.07S
ALTUS AFB      CLEAR     44  40  84 SE2       30.07S
$$

OKZ018>020-024>031-280700-
CENTRAL OKLAHOMA

CITY           SKY/WX    TMP DP  RH WIND       PRES   REMARKS
OKLAHOMA CITY  PTCLDY    51  37  58 SW7       30.05S
6HR MIN TEMP:  50; 6HR MAX TEMP:  64;

OKC/WILEY POST CLEAR     56  41  57 S13       30.04F
OKC/TINKER AFB CLEAR     51  38  60 S13       30.05S
STILLWATER     PTCLDY    50  35  56 SE5       30.02S
GUTHRIE        CLEAR     60  39  45 SW8       30.03S
$$

OKZ008-013-054>072-280700-
NORTHEAST OKLAHOMA

CITY           SKY/WX    TMP DP  RH WIND       PRES   REMARKS
TULSA          MOCLDY    55  36  48 S9        30.03S
6HR MIN TEMP:  55; 6HR MAX TEMP:  62;

TULSA/JONES    CLEAR     42  35  76 CALM      30.06S
PONCA CITY     CLEAR     55  36  48 S6        30.01S
BARTLESVILLE   CLEAR     49  35  58 S7        30.04S
MUSKOGEE       CLEAR     48  31  51 S7        30.09S
$$

OKZ032-040>043-046>053-073>077-280700-
SOUTH CENTRAL/SOUTHEAST OKLAHOMA

CITY           SKY/WX    TMP DP  RH WIND       PRES   REMARKS
ARDMORE/DWNTWN CLEAR     50  36  57 CALM      30.10S
MCALESTER      PTCLDY    55  37  50 SW3       30.09S
$$



USA.gov is the U.S. government's official web portal to all federal, state and local government web resources and services.